Louisburg, NC

1:42 AM EST on November 25, 2017 (GMT -0500)
Franklin County

Weather History for KLHZ - October, 2012

Change the Weather History Date:

Wednesday, October 3, 2012

  Actual Average (KRDU) Record (KRDU)
Temperature  
Mean Temperature 82 °F -  
Max Temperature 84 °F 75 °F 91 °F (1954)
Min Temperature 78 °F 51 °F 32 °F (1974)
Cooling Degree Days 17    
Growing Degree Days 32 (Base 50)    
Moisture  
Dew Point 72 °F    
Average Humidity 74    
Maximum Humidity 94    
Minimum Humidity 62    
Precipitation  
Precipitation 0.00 in - - ()
Sea Level Pressure  
Sea Level Pressure 30.09 in    
Wind  
Wind Speed 3 mph (South)    
Max Wind Speed 9 mph    
Max Gust Speed -    
Visibility 8 miles    
Events Rain    
Averages and records for this station are not official NWS values.
T = Trace of Precipitation, MM = Missing Value Source: NWS Daily Summary

Daily Weather History Graph

Daily Weather History Graph

Search for Another Location

Airport or City:

Trip Planner

Search our weather history database for the weather conditions in past years. The results will help you decide how hot, cold, wet, or windy it might be!

Date:

Astronomy

Oct. 03, 2012 Rise Set
Actual Time 7:10 AM EDT 6:53 PM EDT
Civil Twilight 6:44 AM EDT 7:18 PM EDT
Nautical Twilight 6:15 AM EDT 7:48 PM EDT
Astronomical Twilight 5:45 AM EDT 8:18 PM EDT
Moon 8:52 PM EDT (10/3) 10:24 AM EDT (10/3)
Length of Visible Light 12h 34m
Length of Day
11h 43m
Waning Gibbous, 89% of the Moon is Illuminated
Oct 3
Waning Gibbous
Oct 8
Last Quarter
Oct 15
New
Oct 21
First Quarter
Oct 29
Full

Hourly Weather History & Observations

Time (EDT) Temp. Heat Index Dew Point Humidity Pressure Visibility Wind Dir Wind Speed Gust Speed Precip Events Conditions
12:15 AM - - - N/A% 29.99 in 7.0 mi South 5.8 mph - N/A   Overcast
12:35 AM - - - N/A% 30.00 in 7.0 mi South 4.6 mph - N/A   Overcast
12:55 AM - - - N/A% 30.00 in 10.0 mi South 4.6 mph - N/A   Overcast
1:15 AM - - - N/A% 30.00 in 7.0 mi South 4.6 mph - N/A   Overcast
1:35 AM - - - N/A% 30.01 in 7.0 mi South 6.9 mph - N/A   Overcast
1:55 AM - - - N/A% 30.02 in 7.0 mi South 4.6 mph - N/A   Overcast
2:15 AM - - - N/A% 30.02 in 7.0 mi South 4.6 mph - N/A Rain Light Rain
2:35 AM - - - N/A% 30.02 in 7.0 mi South 3.5 mph - N/A   Overcast
2:55 AM - - - N/A% 30.02 in 7.0 mi Calm Calm - N/A   Overcast
3:15 AM - - - N/A% 30.02 in 7.0 mi Calm Calm - N/A   Overcast
3:35 AM - - - N/A% 30.02 in 7.0 mi Calm Calm - N/A   Overcast
3:55 AM - - - N/A% 30.03 in 7.0 mi Calm Calm - N/A   Overcast
4:15 AM - - - N/A% 30.03 in 7.0 mi Calm Calm - N/A   Overcast
4:35 AM - - - N/A% 30.04 in 7.0 mi Calm Calm - N/A   Overcast
4:55 AM - - - N/A% 30.04 in 7.0 mi Calm Calm - N/A   Overcast
5:15 AM - - - N/A% 30.05 in 7.0 mi Calm Calm - N/A   Mostly Cloudy
5:35 AM - - - N/A% 30.05 in 5.0 mi Calm Calm - N/A   Haze
5:55 AM - - - N/A% 30.06 in 5.0 mi Calm Calm - N/A   Haze
6:15 AM - - - N/A% 30.06 in 4.0 mi Calm Calm - N/A   Haze
6:55 AM - - - N/A% 30.07 in 3.0 mi Calm Calm - N/A   Overcast
7:15 AM - - - N/A% 30.07 in 2.0 mi Calm Calm - N/A   Overcast
7:35 AM - - - N/A% 30.07 in 1.5 mi Calm Calm - N/A   Scattered Clouds
7:55 AM - - - N/A% 30.08 in 2.0 mi Calm Calm - N/A   Scattered Clouds
8:15 AM - - - N/A% 30.09 in 3.0 mi Calm Calm - N/A   Scattered Clouds
8:35 AM - - - N/A% 30.09 in 4.0 mi Calm Calm - N/A   Haze
8:55 AM - - - N/A% 30.10 in 4.0 mi Calm Calm - N/A   Haze
9:15 AM - - - N/A% 30.10 in 7.0 mi South 3.5 mph - N/A   Overcast
9:35 AM - - - N/A% 30.11 in 5.0 mi South 3.5 mph - N/A   Haze
9:55 AM - - - N/A% 30.12 in 7.0 mi South 3.5 mph - N/A   Overcast
10:15 AM - - - N/A% 30.12 in 7.0 mi Calm Calm - N/A   Overcast
10:35 AM - - - N/A% 30.12 in 7.0 mi South 4.6 mph - N/A   Overcast
10:55 AM - - - N/A% 30.12 in 7.0 mi South 4.6 mph - N/A   Mostly Cloudy
11:15 AM - - - N/A% 30.12 in 7.0 mi Calm Calm - N/A   Mostly Cloudy
11:35 AM - - - N/A% 30.12 in 7.0 mi South 3.5 mph - N/A   Mostly Cloudy
11:55 AM - - - N/A% 30.13 in 10.0 mi SSW 3.5 mph - N/A   Mostly Cloudy
12:15 PM - - - N/A% 30.12 in 10.0 mi South 6.9 mph - N/A   Mostly Cloudy
12:35 PM 80.6 °F 85.4 °F 73.4 °F 79% 30.13 in 10.0 mi South 6.9 mph - N/A   Scattered Clouds
12:55 PM 80.6 °F 85.4 °F 73.4 °F 79% 30.12 in 10.0 mi SSE 3.5 mph - N/A   Scattered Clouds
1:15 PM 80.6 °F 84.6 °F 71.6 °F 74% 30.11 in 10.0 mi South 5.8 mph - N/A   Mostly Cloudy
1:55 PM 80.6 °F 84.6 °F 71.6 °F 74% 30.10 in 10.0 mi Calm Calm - N/A   Scattered Clouds
2:15 PM 82.4 °F 87.2 °F 71.6 °F 70% 30.09 in 10.0 mi South 9.2 mph - N/A   Scattered Clouds
2:35 PM 82.4 °F 87.2 °F 71.6 °F 70% 30.09 in 10.0 mi South 3.5 mph - N/A   Scattered Clouds
2:55 PM 82.4 °F 86.3 °F 69.8 °F 66% 30.08 in 10.0 mi SSW 4.6 mph - N/A   Clear
3:15 PM 84.2 °F 89.6 °F 71.6 °F 66% 30.08 in 10.0 mi South 5.8 mph - N/A   Clear
3:35 PM 84.2 °F 88.4 °F 69.8 °F 62% 30.09 in 10.0 mi SW 4.6 mph - N/A   Scattered Clouds
4:15 PM 82.4 °F 86.3 °F 69.8 °F 66% 30.09 in 10.0 mi South 3.5 mph - N/A   Scattered Clouds
4:35 PM 82.4 °F 86.3 °F 69.8 °F 66% 30.09 in 10.0 mi South 5.8 mph - N/A   Clear
4:55 PM 80.6 °F 84.6 °F 71.6 °F 74% 30.09 in 10.0 mi South 3.5 mph - N/A   Scattered Clouds
5:15 PM 80.6 °F 85.4 °F 73.4 °F 79% 30.09 in 10.0 mi Calm Calm - N/A   Mostly Cloudy
5:35 PM 80.6 °F 85.4 °F 73.4 °F 79% 30.10 in 10.0 mi Calm Calm - N/A   Scattered Clouds
5:55 PM 80.6 °F 85.4 °F 73.4 °F 79% 30.10 in 10.0 mi Calm Calm - N/A   Scattered Clouds
6:15 PM 78.8 °F - 77.0 °F 94% 30.10 in 7.0 mi Calm Calm - N/A   Scattered Clouds
6:55 PM - - - N/A% 30.11 in 7.0 mi Calm Calm - N/A   Scattered Clouds
7:15 PM - - - N/A% 30.11 in 7.0 mi Calm Calm - N/A   Scattered Clouds
7:35 PM - - - N/A% 30.12 in 7.0 mi Calm Calm - N/A   Clear
7:55 PM - - - N/A% 30.13 in 10.0 mi Calm Calm - N/A   Clear
8:15 PM - - - N/A% 30.13 in 10.0 mi Calm Calm - N/A   Clear
8:35 PM - - - N/A% 30.13 in 10.0 mi Calm Calm - N/A   Clear
8:55 PM - - - N/A% 30.14 in 10.0 mi Calm Calm - N/A   Scattered Clouds
9:15 PM - - - N/A% 30.14 in 7.0 mi Calm Calm - N/A   Clear
9:35 PM - - - N/A% 30.15 in 7.0 mi Calm Calm - N/A   Clear
9:55 PM - - - N/A% 30.16 in 10.0 mi Calm Calm - N/A   Scattered Clouds
10:15 PM - - - N/A% 30.16 in 10.0 mi Calm Calm - N/A   Mostly Cloudy
10:35 PM - - - N/A% 30.16 in 10.0 mi Calm Calm - N/A   Overcast
10:55 PM - - - N/A% 30.17 in 10.0 mi Calm Calm - N/A   Mostly Cloudy
11:15 PM - - - N/A% 30.17 in 10.0 mi Calm Calm - N/A   Scattered Clouds
11:35 PM - - - N/A% 30.18 in 10.0 mi Calm Calm - N/A   Mostly Cloudy
11:55 PM - - - N/A% 30.18 in 10.0 mi Calm Calm - N/A   Overcast